Regional Weather Roundup
Issued by NWS

Home | Current Version | Previous Version | Text Only | Print | Product List | Glossary On
Versions: 1 2 3 4 5 6 7 8 9 10 11 12 13 14 15 16 17 18 19 20 21 22 23 24 25 26 27 28 29 30 31 32 33 34 35 36 37 38 39 40 41 42 43 44 45 46 47 48 49 50
000
ASUS43 KDTX 270601
RWRMI
MICHIGAN HOURLY REGIONAL WEATHER ROUNDUP
NATIONAL WEATHER SERVICE DETROIT/PONTIAC MI
200 AM EDT THU APR 27 2017

NOTE: "FAIR" INDICATES FEW OR NO CLOUDS BELOW 12,000 FEET WITH NO
SIGNIFICANT WEATHER AND/OR OBSTRUCTION TO VISIBILITY.

MIZ047>049-052>055-059>063-066>070-074>076-081>083-270700-
SOUTHEAST LOWER MICHIGAN

CITY           SKY/WX    TMP DP  RH WIND       PRES   REMARKS
ADRIAN         MOCLDY    67  53  61 S10       29.52F
6HR MIN TEMP:  62; 6HR MAX TEMP:  78; 6HR PCP:  0.10;

ALMA           CLOUDY    66  58  76 SE8       29.47F
ANN ARBOR      PTCLDY    61  61 100 E3        29.53S
BAD AXE        CLOUDY    64  56  75 SE12G17   29.51F
6HR MIN TEMP:  62; 6HR MAX TEMP:  72;

CARO           CLOUDY    64  58  83 SE8       29.51R
DETROIT CITY   CLOUDY    60  52  74 E5        29.55S
6HR MIN TEMP:  59; 6HR MAX TEMP:  68;

DETROIT        PTCLDY    66  52  60 SE3       29.55R
6HR MIN TEMP:  65; 6HR MAX TEMP:  74;

FLINT          PTCLDY    62  59  90 SE8       29.52R
6HR MIN TEMP:  62; 6HR MAX TEMP:  75; 6HR PCP:  0.09;

GROSSE ILE     PTCLDY    62  52  69 S13G18    29.54R
6HR MIN TEMP:  60; 6HR MAX TEMP:  68;

HILLSDALE      CLOUDY    63  54  72 S9        29.50F
HOWELL         CLOUDY    62  58  88 SE7       29.52S
6HR MIN TEMP:  60; 6HR MAX TEMP:  78; 6HR PCP:  0.32;


CITY           SKY/WX    TMP DP  RH WIND       PRES   REMARKS
JACKSON        MOCLDY    63  56  78 S9        29.50F
6HR MIN TEMP:  62; 6HR MAX TEMP:  78; 6HR PCP:  0.22;

LAMBERTVILLE   PTCLDY    69  50  50 S6        29.54R
6HR MIN TEMP:  69; 6HR MAX TEMP:  80;

LANSING        PTCLDY    67  57  70 SE9       29.49S
6HR MIN TEMP:  64; 6HR MAX TEMP:  76; 6HR PCP: TRACE;

LAPEER         FAIR      59  55  85 SE7       29.54S
6HR MIN TEMP:  59; 6HR MAX TEMP:  71; 6HR PCP:  0.23;

MASON          CLOUDY    64  59  83 SE7       29.50F
MONROE         PTCLDY    65  52  63 SE6       29.54R
6HR MIN TEMP:  64; 6HR MAX TEMP:  72;

MT. CLEMENS    PTCLDY    57  55  92 E6        29.55F
6HR MIN TEMP:  56; 6HR MAX TEMP:  67;

PONTIAC        PTCLDY    60  55  83 SE7       29.54R
6HR MIN TEMP:  60; 6HR MAX TEMP:  71; 6HR PCP:  0.17;

PORT HOPE        N/A     65  57  75 VRB3G16   29.46F
6HR MIN TEMP:  63; 6HR MAX TEMP:  69; 6HR PCP:  0.04;

PORT HURON     PTCLDY    55  50  82 SE3       29.57F
TRI CITIES     CLOUDY    68  59  73 S13       29.49R
6HR MIN TEMP:  65; 6HR MAX TEMP:  76;

MIDLAND        MOCLDY    65  56  72 SE3       29.46S
6HR MIN TEMP:  63; 6HR MAX TEMP:  77;

TROY           CLOUDY    63  50  63 CALM      29.57S
SAGINAW HB     CLOUDY    68  54  60 S10G18    29.49R
$$
MIZ043>046-050>051-056>058-064>065-071>073-077>080-270700-
SOUTHWEST LOWER MICHIGAN

CITY           SKY/WX    TMP DP  RH WIND       PRES   REMARKS
BATTLE CREEK   CLOUDY    66  58  75 S6        29.47F
6HR MIN TEMP:  65; 6HR MAX TEMP:  72;

BENTON HARBOR  LGT RAIN  59  57  93 VRB3      29.47R FOG
6HR MIN TEMP:  58; 6HR MAX TEMP:  70; 6HR PCP:  0.13;

BIG RAPIDS     RAIN      59  54  84 SW9       29.49R
6HR MIN TEMP:  59; 6HR MAX TEMP:  71; 6HR PCP:  0.02;

COLDWATER      MOCLDY    65  57  75 SE13      29.48F
6HR MIN TEMP:  63; 6HR MAX TEMP:  76;

FREMONT        LGT RAIN  59  58  96 E3        29.44F
HOLLAND        CLOUDY    61  58  90 NE7       29.43F
6HR MIN TEMP:  60; 6HR MAX TEMP:  68; 6HR PCP:  0.07;

GRAND RAPIDS   CLOUDY    62  61  96 E6        29.44F
6HR MIN TEMP:  62; 6HR MAX TEMP:  72; 6HR PCP:  0.30;

IONIA          FAIR      66  56  70 SE13      29.45F
6HR MIN TEMP:  63; 6HR MAX TEMP:  73;

KALAMAZOO      CLOUDY    63  56  78 SW3       29.46F
6HR MIN TEMP:  63; 6HR MAX TEMP:  72;

LUDINGTON      LGT RAIN  56  56 100 CALM      29.43F
6HR MIN TEMP:  56; 6HR MAX TEMP:  64; 6HR PCP:  0.03;

MARSHALL       CLOUDY    65  57  75 SE9       29.47F
6HR MIN TEMP:  65; 6HR MAX TEMP:  75; 6HR PCP:  0.06;

MOUNT PLEASANT CLOUDY    60  57  89 CALM      29.44F
6HR MIN TEMP:  60; 6HR MAX TEMP:  73; 6HR PCP:  0.02;

MUSKEGON       LGT RAIN  60  57  89 CALM      29.44F
6HR MIN TEMP:  59; 6HR MAX TEMP:  66; 6HR PCP:  0.05;

SOUTH HAVEN    LGT RAIN  58  57  96 CALM      29.47R
$$
MIZ016>042-270700-
NORTHERN LOWER MICHIGAN

CITY           SKY/WX    TMP DP  RH WIND       PRES   REMARKS
ALPENA         MOCLDY    54  51  90 E3        29.48F
6HR MIN TEMP:  54; 6HR MAX TEMP:  67;

BEAVER ISLAND  MOCLDY    50  49  96 E3        29.45F
BELLAIRE       CLOUDY    57  54  90 CALM      29.44S
6HR MIN TEMP:  56; 6HR MAX TEMP:  71;

CADILLAC       LGT RAIN  61  55  79 CALM      29.46S
CHARLEVOIX     CLOUDY    60  55  85 E6        29.47S
6HR MIN TEMP:  56; 6HR MAX TEMP:  64;

FRANKFORT      RAIN      59  55  84 CALM      29.44R
GAYLORD        CLOUDY    63  55  75 CALM      29.46F
6HR MIN TEMP:  63; 6HR MAX TEMP:  75;

GRAYLING       CLOUDY    58  55  91 CALM      29.47F
HARBOR SPRINGS CLOUDY    57  55  91 NE8       29.45F
HOUGHTON LAKE  CLOUDY    64  55  72 SE6       29.48S
6HR MIN TEMP:  60; 6HR MAX TEMP:  72;

MANISTEE       RAIN      60  56  86 CALM      29.44R
OSCODA         CLOUDY    64  52  65 SE8       29.47F
6HR MIN TEMP:  57; 6HR MAX TEMP:  67;

PELLSTON       CLOUDY    54  51  90 CALM      29.47S
6HR MIN TEMP:  52; 6HR MAX TEMP:  62;

ROGERS CITY    CLOUDY    44  41  90 CALM      29.49F
TRAVERSE CITY  CLOUDY    60  54  80 CALM      29.42S
6HR MIN TEMP:  60; 6HR MAX TEMP:  71;

$$
MIZ007>008-015-270700-
EASTERN UPPER MICHIGAN

CITY           SKY/WX    TMP DP  RH WIND       PRES   REMARKS
KINROSS        CLOUDY    51  48  89 SE9       29.49R
6HR MIN TEMP:  50; 6HR MAX TEMP:  53;

MACKINAC ISLAN CLOUDY    48  48 100 E14G22    29.46S
6HR MIN TEMP:  42; 6HR MAX TEMP:  49;

NEWBERRY       FOG       51  50  97 E3        29.45S VSB 3/4
6HR MIN TEMP:  49; 6HR MAX TEMP:  54;

S. S. MARIE    CLOUDY    54  50  86 E8        29.48S
6HR MIN TEMP:  52; 6HR MAX TEMP:  55;

MUNISING         N/A     37  36  96 N8        29.48S WCI  31
6HR MIN TEMP:  36; 6HR MAX TEMP:  44;

$$
MIZ004>006-011>014-085-270700-
CENTRAL UPPER MICHIGAN

CITY           SKY/WX    TMP DP  RH WIND       PRES   REMARKS
MANISTIQUE     FOG       46  46  97 NW3       29.46R VSB 1/4
6HR MIN TEMP:  42; 6HR MAX TEMP:  47;

ESCANABA       CLOUDY    45  44  97 N10       29.45R FOG
6HR MIN TEMP:  45; 6HR MAX TEMP:  54;

MENOMINEE      LGT RAIN  46  42  86 N12       29.44R
6HR MIN TEMP:  46; 6HR MAX TEMP:  65; 6HR PCP: TRACE;

SAWYER-GWINN   CLOUDY    36  35  98 NE7       29.46F FOG     WCI  30
6HR MIN TEMP:  36; 6HR MAX TEMP:  47; 6HR PCP:  0.02;

$$
MIZ001>003-009>011-084-270700-
WESTERN UPPER MICHIGAN

CITY           SKY/WX    TMP DP  RH WIND       PRES   REMARKS
IRON MOUNTAIN  CLOUDY    38  34  85 NW12      29.45F WCI  30
6HR MIN TEMP:  38; 6HR MAX TEMP:  44; 6HR PCP:  0.01;

HOUGHTON       LGT SNOW  30  27  88 N12       29.51R FOG     WCI  20
6HR MIN TEMP:  30; 6HR MAX TEMP:  33; 6HR PCP:  0.01;

IRONWOOD       LGT SNOW  27  26  96 N8        29.56S FOG     WCI  19
6HR MIN TEMP:  27; 6HR MAX TEMP:  31; 6HR PCP: TRACE;

$$

ABBREVIATIONS USED IN REMARKS
   TC - TEMPERATURE IN CELSIUS
  WCI - WIND CHILL INDEX
   HX - HEAT INDEX
  VSB - VISIBILITY





USA.gov is the U.S. government's official web portal to all federal, state and local government web resources and services.